Home > Weather > Ehingen (Donau) > Past weeks

Flag for Germany Weather for the Past 2 Weeks in Ehingen (Donau), Baden-Württemberg, Germany

Now
45 °F

Light rain. Overcast.


Feels Like: 42 °F
Forecast: 34 / 40 °F
Wind: 5 mph from Northwest

Location: Laupheim Airport

Current Time: Feb 14, 2016 at 2:15:56 PM

Latest Report: Feb 14, 2016 at 1:20 PM


Visibility: N/A

Pressure: 29.18 "Hg (27.43 "Hg at 508m altitude)

Humidity: 71%

Dew point: 36 °F

Location of Ehingen (Donau)Location

Historic Weather in Ehingen (Donau) — Graph

°F

Ehingen (Donau) Temperature Yesterday

Maximum temperature yesterday: 43 °F (at 12:20 PM)
Minimum temperature yesterday: 34 °F (at 12:20 AM)
Average temperature yesterday: 39 °F

High & Low Weather Summary for the Past Weeks

 TemperatureHumidityPressure
High55 °F (Feb 1, 11:49 AM)100% (Jan 31, 7:20 AM)30.36 "Hg (Jan 31, 7:20 AM)
Low28 °F (Feb 6, 2:20 AM)49% (Feb 11, 2:20 PM)29.15 "Hg (Feb 13, 10:20 PM)
Average40 °F80%29.83 "Hg
* Reported Jan 30 12:20 PM — Feb 14 12:20 PM, Ehingen (Donau), Weather by CustomWeather, © 2016

Note: Actual official high and low records may vary slightly from our data, if they occured in-between our weather recording intervals... More about our weather records

Advertising

Ehingen (Donau) Weather History for the Previous 24 Hours

 ConditionsComfort  
Time TempWeatherWind HumidityBarometerVisibility
12:20 PM
Sun, Feb 14
45 °FMostly cloudy.3 mph66%29.18 "HgN/A
11:20 AM45 °FBroken clouds.2 mph71%29.18 "HgN/A
10:20 AM45 °FPartly sunny.2 mph71%29.15 "HgN/A
9:20 AM43 °FBroken clouds.3 mph76%29.15 "HgN/A
8:20 AM39 °FScattered clouds.3 mph81%29.15 "HgN/A
7:20 AM39 °FPassing clouds.6 mph87%29.15 "HgN/A
6:20 AM41 °FPassing clouds.3 mph76%29.18 "HgN/A
5:20 AM41 °FPassing clouds.8 mph76%29.18 "HgN/A
4:20 AM43 °FPartly cloudy.18 mph71%29.18 "HgN/A
3:20 AM43 °FPartly cloudy.22 mph76%29.18 "HgN/A
2:20 AM43 °FPassing clouds.22 mph76%29.18 "HgN/A
1:20 AM43 °FPassing clouds.16 mph81%29.18 "HgN/A
12:20 AM43 °FPassing clouds.18 mph81%29.18 "HgN/A
11:20 PM
Sat, Feb 13
41 °FPassing clouds.15 mph87%29.15 "HgN/A
10:20 PM41 °FPassing clouds.16 mph87%29.15 "HgN/A
9:20 PM41 °FLight rain. Partly cloudy.17 mph87%29.18 "HgN/A
8:20 PM39 °FPassing clouds.12 mph87%29.18 "HgN/A
7:20 PM41 °FPassing clouds.15 mph81%29.18 "HgN/A
6:20 PM39 °FPassing clouds.10 mph87%29.18 "HgN/A
5:20 PM41 °FBroken clouds.5 mph81%29.18 "HgN/A
4:20 PM41 °FPartly sunny.8 mph87%29.21 "HgN/A
3:20 PM41 °FLight rain. Broken clouds.12 mph81%29.24 "Hg6 mi
2:20 PM43 °FBroken clouds.9 mph76%29.24 "HgN/A
Weather by CustomWeather, © 2016

See weather overviewHow to use our weather pages